| time (UTC) | temp C | wind direction | speed KPH | gust KPH | rain 1hr cm | rain 24hr cm | rain mn cm | humidity % | barometer mb |
| 20260510123559 | 2 | 0 | 0.0 | 0.0 | 0.00 | 0.00 | 0.00 | 71 | 1025.8 |
| 20260510123100 | 2 | 0 | 0.0 | 0.0 | 0.00 | 0.00 | 0.00 | 70 | 1025.8 |
| 20260510122559 | 3 | 148 | 0.0 | 0.0 | 0.00 | 0.00 | 0.00 | 71 | 1025.8 |
| 20260510122058 | 3 | 0 | 0.0 | 0.0 | 0.00 | 0.00 | 0.00 | 72 | 1026.0 |
| 20260510121603 | 3 | 0 | 0.0 | 0.0 | 0.00 | 0.00 | 0.00 | 72 | 1025.8 |
| 20260510121059 | 3 | 0 | 0.0 | 1.6 | 0.00 | 0.00 | 0.00 | 72 | 1025.9 |
| 20260510120559 | 3 | 0 | 0.0 | 1.6 | 0.00 | 0.00 | 0.00 | 70 | 1025.9 |
| 20260510120056 | 3 | 185 | 0.0 | 0.0 | 0.00 | 0.00 | 0.00 | 68 | 1025.9 |
| 20260510115558 | 3 | 0 | 0.0 | 0.0 | 0.00 | 0.00 | 0.00 | 67 | 1026.0 |
| 20260510115059 | 4 | 0 | 0.0 | 0.0 | 0.00 | 0.00 | 0.00 | 66 | 1026.0 |
| 20260510114559 | 4 | 0 | 0.0 | 0.0 | 0.00 | 0.00 | 0.00 | 67 | 1025.7 |
| 20260510114059 | 4 | 0 | 0.0 | 3.2 | 0.00 | 0.00 | 0.00 | 67 | 1025.8 |
| 20260510113601 | 4 | 0 | 0.0 | 3.2 | 0.00 | 0.00 | 0.00 | 66 | 1025.8 |
| 20260510113058 | 3 | 184 | 1.6 | 3.2 | 0.00 | 0.00 | 0.00 | 67 | 1025.8 |
| 20260510112558 | 4 | 0 | 0.0 | 1.6 | 0.00 | 0.00 | 0.00 | 65 | 1025.8 |
| 20260510112055 | 4 | 0 | 0.0 | 1.6 | 0.00 | 0.00 | 0.00 | 65 | 1025.6 |
| 20260510111557 | 4 | 0 | 0.0 | 0.0 | 0.00 | 0.00 | 0.00 | 71 | 1025.5 |
| 20260510111057 | 4 | 0 | 0.0 | 0.0 | 0.00 | 0.00 | 0.00 | 69 | 1025.4 |
| 20260510110559 | 4 | 0 | 0.0 | 0.0 | 0.00 | 0.00 | 0.00 | 64 | 1025.5 |
| 20260510105559 | 4 | 0 | 0.0 | 0.0 | 0.00 | 0.00 | 0.00 | 63 | 1025.3 |
| 20260510105059 | 5 | 0 | 0.0 | 1.6 | 0.00 | 0.00 | 0.00 | 62 | 1025.3 |
| 20260510104559 | 5 | 0 | 0.0 | 3.2 | 0.00 | 0.00 | 0.00 | 63 | 1025.2 |
| 20260510104100 | 5 | 0 | 0.0 | 3.2 | 0.00 | 0.00 | 0.00 | 61 | 1025.2 |
| 20260510103558 | 5 | 0 | 0.0 | 3.2 | 0.00 | 0.00 | 0.00 | 60 | 1025.2 |
| 20260510103056 | 5 | 0 | 0.0 | 0.0 | 0.00 | 0.00 | 0.00 | 65 | 1025.2 |
| 20260510102558 | 5 | 0 | 0.0 | 0.0 | 0.00 | 0.00 | 0.00 | 65 | 1025.2 |
| 20260510102059 | 5 | 0 | 0.0 | 0.0 | 0.00 | 0.00 | 0.00 | 62 | 1025.2 |
| 20260510101604 | 5 | 0 | 0.0 | 0.0 | 0.00 | 0.00 | 0.00 | 60 | 1025.3 |
| 20260510101100 | 5 | 0 | 0.0 | 3.2 | 0.00 | 0.00 | 0.00 | 60 | 1025.3 |
| 20260510100559 | 5 | 0 | 0.0 | 3.2 | 0.00 | 0.00 | 0.00 | 62 | 1025.5 |
| 20260510100132 | 5 | 179 | 0.0 | 3.2 | 0.00 | 0.00 | 0.00 | 57 | 1025.5 |
| 20260510095605 | 5 | 0 | 0.0 | 1.6 | 0.00 | 0.00 | 0.00 | 58 | 1025.5 |
| 20260510095135 | 5 | 0 | 0.0 | 0.0 | 0.00 | 0.00 | 0.00 | 56 | 1025.3 |
| 20260510094559 | 6 | 0 | 0.0 | 0.0 | 0.00 | 0.00 | 0.00 | 56 | 1025.3 |
| 20260510094059 | 6 | 0 | 0.0 | 0.0 | 0.00 | 0.00 | 0.00 | 57 | 1025.3 |
| 20260510093558 | 6 | 0 | 0.0 | 0.0 | 0.00 | 0.00 | 0.00 | 54 | 1025.3 |
| 20260510093102 | 6 | 0 | 0.0 | 1.6 | 0.00 | 0.00 | 0.00 | 54 | 1025.3 |
| 20260510092558 | 7 | 0 | 0.0 | 1.6 | 0.00 | 0.00 | 0.00 | 52 | 1025.3 |
| 20260510092100 | 7 | 0 | 0.0 | 1.6 | 0.00 | 0.00 | 0.00 | 54 | 1025.2 |
| 20260510091559 | 7 | 0 | 0.0 | 1.6 | 0.00 | 0.00 | 0.00 | 52 | 1025.4 |
| 20260510091058 | 7 | 0 | 0.0 | 1.6 | 0.00 | 0.00 | 0.00 | 50 | 1025.3 |
| 20260510090559 | 7 | 0 | 0.0 | 1.6 | 0.00 | 0.00 | 0.00 | 50 | 1025.2 |
| 20260510090111 | 7 | 200 | 0.0 | 1.6 | 0.00 | 0.00 | 0.00 | 51 | 1025.3 |
| 20260510085559 | 7 | 229 | 0.0 | 1.6 | 0.00 | 0.00 | 0.00 | 51 | 1025.3 |
| 20260510085059 | 7 | 236 | 0.0 | 1.6 | 0.00 | 0.00 | 0.00 | 51 | 1025.3 |
| 20260510084556 | 7 | 0 | 0.0 | 1.6 | 0.00 | 0.00 | 0.00 | 51 | 1025.3 |
| 20260510084058 | 8 | 0 | 0.0 | 4.8 | 0.00 | 0.00 | 0.00 | 50 | 1025.3 |
| 20260510083558 | 7 | 0 | 0.0 | 4.8 | 0.00 | 0.00 | 0.00 | 51 | 1025.3 |
| 20260510083102 | 7 | 0 | 1.6 | 4.8 | 0.00 | 0.00 | 0.00 | 49 | 1025.4 |
| 20260510082558 | 7 | 173 | 0.0 | 1.6 | 0.00 | 0.00 | 0.00 | 50 | 1025.3 |
| 20260510082058 | 8 | 0 | 0.0 | 1.6 | 0.00 | 0.00 | 0.00 | 49 | 1025.3 |
| 20260510081557 | 8 | 0 | 0.0 | 3.2 | 0.00 | 0.00 | 0.00 | 54 | 1025.3 |
| 20260510081058 | 8 | 0 | 0.0 | 3.2 | 0.00 | 0.00 | 0.00 | 55 | 1025.3 |
| 20260510080558 | 8 | 193 | 0.0 | 1.6 | 0.00 | 0.00 | 0.00 | 49 | 1025.3 |
| 20260510080100 | 8 | 0 | 0.0 | 0.0 | 0.00 | 0.00 | 0.00 | 51 | 1025.3 |
| 20260510075557 | 8 | 0 | 0.0 | 1.6 | 0.00 | 0.00 | 0.00 | 50 | 1025.3 |
| 20260510075058 | 8 | 0 | 0.0 | 1.6 | 0.00 | 0.00 | 0.00 | 51 | 1025.2 |
| 20260510074558 | 8 | 0 | 0.0 | 4.8 | 0.00 | 0.00 | 0.00 | 51 | 1025.1 |
| 20260510074059 | 8 | 0 | 0.0 | 4.8 | 0.00 | 0.00 | 0.00 | 51 | 1025.3 |
| 20260510073558 | 9 | 167 | 0.0 | 1.6 | 0.00 | 0.00 | 0.00 | 48 | 1025.2 |
| 20260510073102 | 9 | 0 | 0.0 | 4.8 | 0.00 | 0.00 | 0.00 | 48 | 1025.1 |
| 20260510072558 | 9 | 0 | 0.0 | 4.8 | 0.00 | 0.00 | 0.00 | 49 | 1025.2 |
| 20260510072058 | 9 | 141 | 0.0 | 3.2 | 0.00 | 0.00 | 0.00 | 45 | 1025.3 |
| 20260510071601 | 9 | 191 | 0.0 | 3.2 | 0.00 | 0.00 | 0.00 | 44 | 1025.2 |
| 20260510071058 | 10 | 0 | 0.0 | 3.2 | 0.00 | 0.00 | 0.00 | 45 | 1025.2 |
| 20260510070558 | 9 | 203 | 0.0 | 1.6 | 0.00 | 0.00 | 0.00 | 45 | 1025.3 |
| 20260510070101 | 9 | 0 | 0.0 | 1.6 | 0.00 | 0.00 | 0.00 | 45 | 1025.1 |
| 20260510065558 | 9 | 181 | 0.0 | 1.6 | 0.00 | 0.00 | 0.00 | 44 | 1025.2 |
| 20260510065058 | 9 | 0 | 0.0 | 3.2 | 0.00 | 0.00 | 0.00 | 44 | 1025.3 |
| 20260510064604 | 9 | 259 | 0.0 | 3.2 | 0.00 | 0.00 | 0.00 | 45 | 1025.2 |
| 20260510064057 | 9 | 0 | 0.0 | 3.2 | 0.00 | 0.00 | 0.00 | 46 | 1025.2 |
| 20260510063558 | 9 | 0 | 0.0 | 3.2 | 0.00 | 0.00 | 0.00 | 47 | 1025.2 |
| 20260510063059 | 10 | 0 | 0.0 | 3.2 | 0.00 | 0.00 | 0.00 | 45 | 1025.2 |
| 20260510062557 | 10 | 0 | 0.0 | 3.2 | 0.00 | 0.00 | 0.00 | 44 | 1025.2 |
| 20260510062100 | 10 | 0 | 0.0 | 1.6 | 0.00 | 0.00 | 0.00 | 42 | 1025.1 |
| 20260510061556 | 10 | 176 | 0.0 | 3.2 | 0.00 | 0.00 | 0.00 | 43 | 1024.9 |
| 20260510061057 | 10 | 0 | 0.0 | 3.2 | 0.00 | 0.00 | 0.00 | 45 | 1024.9 |
| 20260510060559 | 10 | 0 | 0.0 | 1.6 | 0.00 | 0.00 | 0.00 | 43 | 1024.9 |
| 20260510060100 | 10 | 0 | 0.0 | 3.2 | 0.00 | 0.00 | 0.00 | 41 | 1025.0 |
| 20260510055558 | 10 | 249 | 0.0 | 3.2 | 0.00 | 0.00 | 0.00 | 44 | 1024.9 |
| 20260510055058 | 11 | 0 | 0.0 | 3.2 | 0.00 | 0.00 | 0.00 | 45 | 1024.9 |
| 20260510054558 | 10 | 0 | 0.0 | 1.6 | 0.00 | 0.00 | 0.00 | 43 | 1024.9 |
| 20260510054057 | 11 | 0 | 0.0 | 1.6 | 0.00 | 0.00 | 0.00 | 41 | 1024.9 |
| 20260510053558 | 11 | 0 | 0.0 | 1.6 | 0.00 | 0.00 | 0.00 | 39 | 1024.9 |
| 20260510053056 | 11 | 233 | 0.0 | 0.0 | 0.00 | 0.00 | 0.00 | 38 | 1025.0 |
| 20260510052600 | 11 | 0 | 0.0 | 0.0 | 0.00 | 0.00 | 0.00 | 37 | 1024.9 |
| 20260510052100 | 11 | 0 | 0.0 | 3.2 | 0.00 | 0.00 | 0.00 | 37 | 1025.0 |
| 20260510051559 | 11 | 0 | 0.0 | 3.2 | 0.00 | 0.00 | 0.00 | 37 | 1025.1 |
| 20260510051057 | 12 | 0 | 0.0 | 3.2 | 0.00 | 0.00 | 0.00 | 35 | 1024.9 |
| 20260510050557 | 12 | 231 | 0.0 | 1.6 | 0.00 | 0.00 | 0.00 | 36 | 1024.9 |
| 20260510050058 | 12 | 0 | 0.0 | 1.6 | 0.00 | 0.00 | 0.00 | 36 | 1024.9 |
| 20260510045558 | 12 | 0 | 0.0 | 1.6 | 0.00 | 0.00 | 0.00 | 34 | 1024.9 |
| 20260510045058 | 12 | 0 | 0.0 | 1.6 | 0.00 | 0.00 | 0.00 | 33 | 1024.9 |
| 20260510044558 | 12 | 0 | 0.0 | 4.8 | 0.00 | 0.00 | 0.00 | 32 | 1024.8 |
| 20260510044059 | 13 | 0 | 0.0 | 8.0 | 0.00 | 0.00 | 0.00 | 33 | 1024.6 |
| 20260510043558 | 13 | 219 | 3.2 | 8.0 | 0.00 | 0.00 | 0.00 | 32 | 1024.6 |
| 20260510043100 | 13 | 0 | 0.0 | 1.6 | 0.00 | 0.00 | 0.00 | 32 | 1024.6 |
| 20260510042602 | 13 | 0 | 0.0 | 3.2 | 0.00 | 0.00 | 0.00 | 32 | 1024.4 |
| 20260510042058 | 13 | 0 | 0.0 | 4.8 | 0.00 | 0.00 | 0.00 | 31 | 1024.3 |
| 20260510041558 | 14 | 165 | 3.2 | 4.8 | 0.00 | 0.00 | 0.00 | 29 | 1024.3 |
| 20260510041057 | 14 | 173 | 0.0 | 3.2 | 0.00 | 0.00 | 0.00 | 28 | 1024.2 |
| 20260510040557 | 14 | 0 | 0.0 | 3.2 | 0.00 | 0.00 | 0.00 | 28 | 1024.1 |
| 20260510040104 | 15 | 170 | 1.6 | 3.2 | 0.00 | 0.00 | 0.00 | 29 | 1024.0 |
| 20260510035555 | 15 | 217 | 1.6 | 3.2 | 0.00 | 0.00 | 0.00 | 28 | 1024.0 |
| 20260510035057 | 15 | 188 | 0.0 | 3.2 | 0.00 | 0.00 | 0.00 | 28 | 1023.9 |
| 20260510034604 | 15 | 0 | 0.0 | 4.8 | 0.00 | 0.00 | 0.00 | 28 | 1023.9 |
| 20260510034058 | 16 | 169 | 0.0 | 4.8 | 0.00 | 0.00 | 0.00 | 27 | 1023.7 |
| 20260510033556 | 16 | 0 | 0.0 | 4.8 | 0.00 | 0.00 | 0.00 | 26 | 1023.6 |
| 20260510033115 | 16 | 255 | 1.6 | 4.8 | 0.00 | 0.00 | 0.00 | 26 | 1023.6 |
| 20260510032559 | 16 | 0 | 1.6 | 4.8 | 0.00 | 0.00 | 0.00 | 26 | 1023.4 |
| 20260510032101 | 16 | 0 | 1.6 | 4.8 | 0.00 | 0.00 | 0.00 | 27 | 1023.4 |
| 20260510031600 | 16 | 168 | 1.6 | 4.8 | 0.00 | 0.00 | 0.00 | 27 | 1023.3 |
| 20260510031059 | 17 | 191 | 1.6 | 4.8 | 0.00 | 0.00 | 0.00 | 25 | 1023.2 |
| 20260510030557 | 17 | 0 | 0.0 | 3.2 | 0.00 | 0.00 | 0.00 | 25 | 1023.1 |
| 20260510030058 | 17 | 180 | 0.0 | 3.2 | 0.00 | 0.00 | 0.00 | 26 | 1023.1 |
| 20260510025557 | 18 | 0 | 0.0 | 3.2 | 0.00 | 0.00 | 0.00 | 25 | 1022.9 |
| 20260510025058 | 19 | 180 | 0.0 | 3.2 | 0.00 | 0.00 | 0.00 | 24 | 1022.9 |
| 20260510024602 | 20 | 220 | 0.0 | 8.0 | 0.00 | 0.00 | 0.00 | 21 | 1022.8 |
| 20260510024057 | 20 | 120 | 1.6 | 9.7 | 0.00 | 0.00 | 0.00 | 20 | 1022.8 |
| 20260510023558 | 20 | 38 | 3.2 | 9.7 | 0.00 | 0.00 | 0.00 | 20 | 1022.8 |
| 20260510023057 | 20 | 0 | 0.0 | 9.7 | 0.00 | 0.00 | 0.00 | 21 | 1022.7 |
| 20260510022557 | 21 | 70 | 3.2 | 9.7 | 0.00 | 0.00 | 0.00 | 20 | 1022.6 |
| 20260510022059 | 21 | 11 | 1.6 | 9.7 | 0.00 | 0.00 | 0.00 | 20 | 1022.6 |
| 20260510021557 | 21 | 315 | 3.2 | 9.7 | 0.00 | 0.00 | 0.00 | 20 | 1022.6 |
| 20260510021057 | 21 | 34 | 4.8 | 17.7 | 0.00 | 0.00 | 0.00 | 20 | 1022.6 |
| 20260510020602 | 21 | 80 | 4.8 | 17.7 | 0.00 | 0.00 | 0.00 | 19 | 1022.6 |
| 20260510020100 | 21 | 80 | 8.0 | 20.9 | 0.00 | 0.00 | 0.00 | 19 | 1022.6 |
| 20260510015557 | 21 | 41 | 8.0 | 20.9 | 0.00 | 0.00 | 0.00 | 19 | 1022.4 |
| 20260510015057 | 21 | 48 | 6.4 | 16.1 | 0.00 | 0.00 | 0.00 | 20 | 1022.5 |
| 20260510014557 | 22 | 39 | 6.4 | 16.1 | 0.00 | 0.00 | 0.00 | 19 | 1022.4 |
| 20260510014057 | 22 | 47 | 1.6 | 6.4 | 0.00 | 0.00 | 0.00 | 19 | 1022.4 |
| 20260510013558 | 22 | 43 | 1.6 | 14.5 | 0.00 | 0.00 | 0.00 | 20 | 1022.3 |
| 20260510013059 | 22 | 48 | 3.2 | 14.5 | 0.00 | 0.00 | 0.00 | 19 | 1022.2 |
| 20260510012601 | 22 | 76 | 3.2 | 11.3 | 0.00 | 0.00 | 0.00 | 19 | 1022.2 |
| 20260510012058 | 22 | 48 | 3.2 | 14.5 | 0.00 | 0.00 | 0.00 | 20 | 1022.3 |
| 20260510011612 | 22 | 51 | 3.2 | 14.5 | 0.00 | 0.00 | 0.00 | 20 | 1022.3 |
| 20260510011057 | 22 | 43 | 6.4 | 14.5 | 0.00 | 0.00 | 0.00 | 20 | 1022.2 |
| 20260510010555 | 22 | 56 | 4.8 | 12.9 | 0.00 | 0.00 | 0.00 | 21 | 1022.3 |
| 20260510010103 | 22 | 32 | 6.4 | 12.9 | 0.00 | 0.00 | 0.00 | 20 | 1022.4 |
| 20260510005558 | 22 | 97 | 1.6 | 19.3 | 0.00 | 0.00 | 0.00 | 21 | 1022.4 |
| 20260510005057 | 22 | 11 | 6.4 | 19.3 | 0.00 | 0.00 | 0.00 | 21 | 1022.3 |
| 20260510004600 | 23 | 55 | 8.0 | 19.3 | 0.00 | 0.00 | 0.00 | 20 | 1022.4 |
| 20260510004100 | 23 | 95 | 1.6 | 17.7 | 0.00 | 0.00 | 0.00 | 21 | 1022.4 |
| 20260510003558 | 23 | 116 | 4.8 | 12.9 | 0.00 | 0.00 | 0.00 | 20 | 1022.4 |
| 20260510003116 | 23 | 0 | 4.8 | 16.1 | 0.00 | 0.00 | 0.00 | 20 | 1022.4 |
| 20260510002557 | 23 | 85 | 8.0 | 16.1 | 0.00 | 0.00 | 0.00 | 20 | 1022.4 |
| 20260510002058 | 23 | 167 | 6.4 | 12.9 | 0.00 | 0.00 | 0.00 | 19 | 1022.4 |
| 20260510001556 | 23 | 219 | 3.2 | 12.9 | 0.00 | 0.00 | 0.00 | 20 | 1022.4 |
| 20260510001058 | 23 | 0 | 0.0 | 12.9 | 0.00 | 0.00 | 0.00 | 20 | 1022.4 |
| 20260510000600 | 23 | 120 | 1.6 | 12.9 | 0.00 | 0.00 | 0.00 | 20 | 1022.4 |
| 20260509235557 | 23 | 86 | 4.8 | 16.1 | 0.00 | 0.00 | 0.00 | 20 | 1022.5 |
| 20260509235057 | 23 | 106 | 9.7 | 17.7 | 0.00 | 0.00 | 0.00 | 20 | 1022.4 |
| 20260509234611 | 23 | 67 | 9.7 | 17.7 | 0.00 | 0.00 | 0.00 | 20 | 1022.4 |
| 20260509234057 | 23 | 168 | 3.2 | 17.7 | 0.00 | 0.00 | 0.00 | 20 | 1022.5 |
| 20260509233558 | 23 | 177 | 9.7 | 27.4 | 0.00 | 0.00 | 0.00 | 21 | 1022.5 |
| 20260509233057 | 23 | 122 | 8.0 | 27.4 | 0.00 | 0.00 | 0.00 | 21 | 1022.3 |
| 20260509232557 | 23 | 46 | 0.0 | 20.9 | 0.00 | 0.00 | 0.00 | 21 | 1022.4 |
| 20260509232058 | 23 | 122 | 9.7 | 20.9 | 0.00 | 0.00 | 0.00 | 20 | 1022.5 |
| 20260509231557 | 23 | 96 | 11.3 | 20.9 | 0.00 | 0.00 | 0.00 | 21 | 1022.5 |
| 20260509231057 | 23 | 143 | 4.8 | 19.3 | 0.00 | 0.00 | 0.00 | 20 | 1022.4 |
| 20260509230557 | 23 | 143 | 6.4 | 19.3 | 0.00 | 0.00 | 0.00 | 21 | 1022.6 |
| 20260509230108 | 23 | 110 | 1.6 | 8.0 | 0.00 | 0.00 | 0.00 | 21 | 1022.5 |
| 20260509225557 | 24 | 345 | 1.6 | 8.0 | 0.00 | 0.00 | 0.00 | 21 | 1022.6 |
| 20260509225057 | 24 | 77 | 3.2 | 19.3 | 0.00 | 0.00 | 0.00 | 20 | 1022.5 |
| 20260509224556 | 24 | 20 | 4.8 | 19.3 | 0.00 | 0.00 | 0.00 | 20 | 1022.5 |
| 20260509224057 | 24 | 335 | 1.6 | 4.8 | 0.00 | 0.00 | 0.00 | 21 | 1022.6 |
| 20260509223557 | 24 | 350 | 0.0 | 11.3 | 0.00 | 0.00 | 0.00 | 21 | 1022.6 |
| 20260509223058 | 24 | 0 | 4.8 | 11.3 | 0.00 | 0.00 | 0.00 | 20 | 1022.8 |
| 20260509222557 | 23 | 272 | 1.6 | 9.7 | 0.00 | 0.00 | 0.00 | 21 | 1022.9 |
| 20260509222058 | 23 | 295 | 4.8 | 11.3 | 0.00 | 0.00 | 0.00 | 20 | 1023.0 |
| 20260509221555 | 23 | 226 | 3.2 | 11.3 | 0.00 | 0.00 | 0.00 | 21 | 1023.1 |
| 20260509221057 | 23 | 44 | 3.2 | 11.3 | 0.00 | 0.00 | 0.00 | 22 | 1023.0 |
| 20260509220556 | 23 | 33 | 4.8 | 12.9 | 0.00 | 0.00 | 0.00 | 21 | 1023.1 |
| 20260509215558 | 23 | 60 | 4.8 | 12.9 | 0.00 | 0.00 | 0.00 | 21 | 1023.2 |
| 20260509215058 | 24 | 342 | 3.2 | 16.1 | 0.00 | 0.00 | 0.00 | 21 | 1023.3 |
| 20260509214558 | 25 | 360 | 4.8 | 16.1 | 0.00 | 0.00 | 0.00 | 21 | 1023.3 |
| 20260509214100 | 25 | 43 | 0.0 | 12.9 | 0.00 | 0.00 | 0.00 | 21 | 1023.2 |
| 20260509213558 | 24 | 259 | 4.8 | 12.9 | 0.00 | 0.00 | 0.00 | 21 | 1023.4 |
| 20260509213102 | 23 | 209 | 3.2 | 11.3 | 0.00 | 0.00 | 0.00 | 22 | 1023.4 |
| 20260509212601 | 23 | 223 | 1.6 | 14.5 | 0.00 | 0.00 | 0.00 | 22 | 1023.4 |
| 20260509212058 | 23 | 249 | 1.6 | 16.1 | 0.00 | 0.00 | 0.00 | 21 | 1023.4 |
| 20260509211603 | 23 | 105 | 4.8 | 20.9 | 0.00 | 0.00 | 0.00 | 21 | 1023.4 |
| 20260509211058 | 23 | 118 | 8.0 | 20.9 | 0.00 | 0.00 | 0.00 | 23 | 1023.5 |
| 20260509210600 | 23 | 47 | 3.2 | 19.3 | 0.00 | 0.00 | 0.00 | 21 | 1023.5 |
| 20260509205557 | 24 | 0 | 3.2 | 16.1 | 0.00 | 0.00 | 0.00 | 20 | 1023.5 |
| 20260509205057 | 24 | 41 | 3.2 | 14.5 | 0.00 | 0.00 | 0.00 | 22 | 1023.5 |
| 20260509204557 | 25 | 298 | 3.2 | 12.9 | 0.00 | 0.00 | 0.00 | 21 | 1023.5 |
| 20260509204057 | 24 | 313 | 1.6 | 8.0 | 0.00 | 0.00 | 0.00 | 20 | 1023.6 |
| 20260509203557 | 24 | 238 | 1.6 | 16.1 | 0.00 | 0.00 | 0.00 | 21 | 1023.6 |
| 20260509203059 | 23 | 309 | 1.6 | 16.1 | 0.00 | 0.00 | 0.00 | 21 | 1023.7 |
| 20260509202600 | 23 | 154 | 4.8 | 11.3 | 0.00 | 0.00 | 0.00 | 21 | 1023.7 |
| 20260509202057 | 23 | 174 | 0.0 | 9.7 | 0.00 | 0.00 | 0.00 | 22 | 1023.8 |
| 20260509201559 | 22 | 234 | 0.0 | 19.3 | 0.00 | 0.00 | 0.00 | 21 | 1023.8 |
| 20260509201056 | 22 | 92 | 3.2 | 19.3 | 0.00 | 0.00 | 0.00 | 23 | 1024.0 |
| 20260509200558 | 23 | 100 | 6.4 | 19.3 | 0.00 | 0.00 | 0.00 | 21 | 1024.0 |
| 20260509195558 | 22 | 63 | 1.6 | 12.9 | 0.00 | 0.00 | 0.00 | 23 | 1024.2 |
| 20260509195057 | 22 | 0 | 3.2 | 12.9 | 0.00 | 0.00 | 0.00 | 23 | 1024.4 |
| 20260509194559 | 22 | 125 | 9.7 | 19.3 | 0.00 | 0.00 | 0.00 | 22 | 1024.4 |
| 20260509194057 | 22 | 225 | 6.4 | 19.3 | 0.00 | 0.00 | 0.00 | 23 | 1024.5 |
| 20260509193559 | 23 | 309 | 4.8 | 9.7 | 0.00 | 0.00 | 0.00 | 23 | 1024.6 |
| 20260509193100 | 23 | 83 | 3.2 | 9.7 | 0.00 | 0.00 | 0.00 | 23 | 1024.6 |
| 20260509192557 | 23 | 63 | 3.2 | 9.7 | 0.00 | 0.00 | 0.00 | 24 | 1024.6 |
| 20260509192059 | 23 | 296 | 3.2 | 9.7 | 0.00 | 0.00 | 0.00 | 22 | 1024.6 |
| 20260509191557 | 23 | 281 | 3.2 | 9.7 | 0.00 | 0.00 | 0.00 | 23 | 1024.6 |
| 20260509191101 | 23 | 297 | 0.0 | 8.0 | 0.00 | 0.00 | 0.00 | 24 | 1024.6 |
| 20260509190649 | 22 | 271 | 3.2 | 8.0 | 0.00 | 0.00 | 0.00 | 24 | 1024.7 |
| 20260509190058 | 22 | 257 | 1.6 | 12.9 | 0.00 | 0.00 | 0.00 | 24 | 1024.7 |
| 20260509185558 | 22 | 32 | 3.2 | 12.9 | 0.00 | 0.00 | 0.00 | 25 | 1024.7 |
| 20260509185057 | 22 | 49 | 0.0 | 8.0 | 0.00 | 0.00 | 0.00 | 25 | 1024.8 |
| 20260509184602 | 22 | 113 | 1.6 | 9.7 | 0.00 | 0.00 | 0.00 | 24 | 1024.9 |
| 20260509184057 | 22 | 308 | 3.2 | 9.7 | 0.00 | 0.00 | 0.00 | 25 | 1025.1 |
| 20260509183601 | 23 | 265 | 1.6 | 9.7 | 0.00 | 0.00 | 0.00 | 25 | 1025.2 |
| 20260509183139 | 22 | 323 | 1.6 | 9.7 | 0.00 | 0.00 | 0.00 | 25 | 1025.1 |
| 20260509182557 | 23 | 229 | 1.6 | 4.8 | 0.00 | 0.00 | 0.00 | 25 | 1025.1 |
| 20260509182058 | 22 | 266 | 1.6 | 4.8 | 0.00 | 0.00 | 0.00 | 25 | 1025.2 |
| 20260509181616 | 22 | 65 | 1.6 | 4.8 | 0.00 | 0.00 | 0.00 | 25 | 1025.2 |
| 20260509181057 | 21 | 30 | 1.6 | 8.0 | 0.00 | 0.00 | 0.00 | 24 | 1025.4 |
| 20260509180557 | 21 | 316 | 3.2 | 8.0 | 0.00 | 0.00 | 0.00 | 24 | 1025.3 |
| 20260509180104 | 21 | 294 | 1.6 | 8.0 | 0.00 | 0.00 | 0.00 | 25 | 1025.3 |
| 20260509175557 | 21 | 307 | 1.6 | 8.0 | 0.00 | 0.00 | 0.00 | 25 | 1025.3 |
| 20260509175059 | 21 | 29 | 3.2 | 8.0 | 0.00 | 0.00 | 0.00 | 25 | 1025.3 |
| 20260509174559 | 20 | 273 | 1.6 | 11.3 | 0.00 | 0.00 | 0.00 | 26 | 1025.3 |
| 20260509174058 | 20 | 15 | 6.4 | 12.9 | 0.00 | 0.00 | 0.00 | 28 | 1025.1 |
| 20260509173601 | 19 | 47 | 6.4 | 12.9 | 0.00 | 0.00 | 0.00 | 28 | 1025.3 |
| 20260509173106 | 19 | 63 | 4.8 | 12.9 | 0.00 | 0.00 | 0.00 | 28 | 1025.1 |
| 20260509172558 | 20 | 49 | 3.2 | 11.3 | 0.00 | 0.00 | 0.00 | 30 | 1025.2 |
| 20260509172100 | 20 | 30 | 4.8 | 8.0 | 0.00 | 0.00 | 0.00 | 30 | 1025.1 |
| 20260509171601 | 20 | 53 | 1.6 | 4.8 | 0.00 | 0.00 | 0.00 | 29 | 1025.1 |
| 20260509171058 | 19 | 0 | 1.6 | 9.7 | 0.00 | 0.00 | 0.00 | 33 | 1025.1 |
| 20260509170557 | 19 | 304 | 4.8 | 9.7 | 0.00 | 0.00 | 0.00 | 33 | 1025.1 |
| 20260509170101 | 19 | 41 | 1.6 | 6.4 | 0.00 | 0.00 | 0.00 | 36 | 1025.1 |
| 20260509165558 | 18 | 41 | 3.2 | 6.4 | 0.00 | 0.00 | 0.00 | 34 | 1025.2 |
| 20260509165057 | 18 | 39 | 1.6 | 4.8 | 0.00 | 0.00 | 0.00 | 35 | 1025.2 |
| 20260509164608 | 18 | 314 | 0.0 | 4.8 | 0.00 | 0.00 | 0.00 | 34 | 1025.2 |
| 20260509164057 | 18 | 0 | 1.6 | 4.8 | 0.00 | 0.00 | 0.00 | 34 | 1025.4 |
| 20260509163558 | 18 | 309 | 1.6 | 4.8 | 0.00 | 0.00 | 0.00 | 35 | 1025.4 |
| 20260509163108 | 17 | 0 | 0.0 | 6.4 | 0.00 | 0.00 | 0.00 | 37 | 1025.6 |
| 20260509162557 | 16 | 0 | 0.0 | 6.4 | 0.00 | 0.00 | 0.00 | 38 | 1025.6 |
| 20260509162056 | 16 | 49 | 0.0 | 6.4 | 0.00 | 0.00 | 0.00 | 40 | 1025.5 |
| 20260509161605 | 16 | 74 | 1.6 | 6.4 | 0.00 | 0.00 | 0.00 | 39 | 1025.5 |
| 20260509161057 | 16 | 0 | 1.6 | 6.4 | 0.00 | 0.00 | 0.00 | 39 | 1025.6 |
| 20260509160558 | 15 | 52 | 3.2 | 6.4 | 0.00 | 0.00 | 0.00 | 40 | 1025.6 |
| 20260509160100 | 15 | 46 | 3.2 | 6.4 | 0.00 | 0.00 | 0.00 | 40 | 1025.5 |
| 20260509155559 | 15 | 64 | 0.0 | 6.4 | 0.00 | 0.00 | 0.00 | 39 | 1025.5 |
| 20260509155058 | 15 | 0 | 1.6 | 6.4 | 0.00 | 0.00 | 0.00 | 40 | 1025.5 |
| 20260509154606 | 14 | 75 | 1.6 | 6.4 | 0.00 | 0.00 | 0.00 | 40 | 1025.7 |
| 20260509154058 | 13 | 27 | 3.2 | 6.4 | 0.00 | 0.00 | 0.00 | 43 | 1025.6 |
| 20260509153557 | 13 | 62 | 3.2 | 6.4 | 0.00 | 0.00 | 0.00 | 44 | 1025.6 |
| 20260509153059 | 13 | 0 | 0.0 | 4.8 | 0.00 | 0.00 | 0.00 | 44 | 1025.5 |
| 20260509152557 | 13 | 49 | 0.0 | 4.8 | 0.00 | 0.00 | 0.00 | 47 | 1025.7 |
| 20260509152057 | 12 | 56 | 0.0 | 4.8 | 0.00 | 0.00 | 0.00 | 48 | 1025.7 |
| 20260509151559 | 12 | 51 | 1.6 | 3.2 | 0.00 | 0.00 | 0.00 | 49 | 1025.7 |
| 20260509151058 | 12 | 68 | 1.6 | 4.8 | 0.00 | 0.00 | 0.00 | 50 | 1025.7 |
| 20260509150558 | 11 | 60 | 3.2 | 4.8 | 0.00 | 0.00 | 0.00 | 49 | 1025.8 |
| 20260509150058 | 11 | 63 | 0.0 | 4.8 | 0.00 | 0.00 | 0.00 | 51 | 1025.9 |
| 20260509145558 | 11 | 298 | 0.0 | 4.8 | 0.00 | 0.00 | 0.00 | 50 | 1025.8 |
| 20260509145059 | 11 | 38 | 0.0 | 3.2 | 0.00 | 0.00 | 0.00 | 53 | 1025.7 |
| 20260509144558 | 10 | 0 | 0.0 | 3.2 | 0.00 | 0.00 | 0.00 | 56 | 1025.7 |
| 20260509144057 | 9 | 56 | 0.0 | 1.6 | 0.00 | 0.00 | 0.00 | 56 | 1025.7 |
| 20260509143558 | 8 | 67 | 0.0 | 1.6 | 0.00 | 0.00 | 0.00 | 60 | 1025.9 |
| 20260509143103 | 8 | 0 | 0.0 | 1.6 | 0.00 | 0.00 | 0.00 | 61 | 1026.0 |
| 20260509142557 | 8 | 0 | 0.0 | 1.6 | 0.00 | 0.00 | 0.00 | 64 | 1026.0 |
| 20260509142058 | 8 | 122 | 0.0 | 1.6 | 0.00 | 0.00 | 0.00 | 63 | 1026.0 |
| 20260509141609 | 8 | 165 | 0.0 | 0.0 | 0.00 | 0.00 | 0.00 | 63 | 1026.0 |
| 20260509141059 | 7 | 0 | 0.0 | 0.0 | 0.00 | 0.00 | 0.00 | 60 | 1026.0 |
| 20260509140558 | 7 | 0 | 0.0 | 0.0 | 0.00 | 0.00 | 0.00 | 62 | 1026.0 |
| 20260509140107 | 6 | 0 | 0.0 | 0.0 | 0.00 | 0.00 | 0.00 | 63 | 1026.0 |
| 20260509135559 | 6 | 0 | 0.0 | 1.6 | 0.00 | 0.00 | 0.00 | 62 | 1026.0 |
| 20260509135057 | 5 | 0 | 0.0 | 1.6 | 0.00 | 0.00 | 0.00 | 68 | 1026.0 |
| 20260509134603 | 3 | 0 | 0.0 | 1.6 | 0.00 | 0.00 | 0.00 | 71 | 1026.0 |
| 20260509134102 | 2 | 0 | 0.0 | 1.6 | 0.00 | 0.00 | 0.00 | 69 | 1026.0 |
| 20260509133558 | 2 | 0 | 0.0 | 1.6 | 0.00 | 0.00 | 0.00 | 71 | 1025.9 |
| 20260509133105 | 2 | 0 | 0.0 | 1.6 | 0.00 | 0.00 | 0.00 | 73 | 1025.8 |
| 20260509132558 | 2 | 196 | 0.0 | 0.0 | 0.00 | 0.00 | 0.00 | 73 | 1025.6 |
| 20260509132102 | 2 | 205 | 0.0 | 1.6 | 0.00 | 0.00 | 0.00 | 70 | 1025.5 |
| 20260509131557 | 2 | 0 | 0.0 | 1.6 | 0.00 | 0.00 | 0.00 | 70 | 1025.3 |
| 20260509131057 | 2 | 0 | 0.0 | 0.0 | 0.00 | 0.00 | 0.00 | 70 | 1025.2 |
| 20260509130557 | 2 | 0 | 0.0 | 0.0 | 0.00 | 0.00 | 0.00 | 70 | 1025.2 |
| 20260509130104 | 2 | 0 | 0.0 | 0.0 | 0.00 | 0.00 | 0.00 | 69 | 1025.1 |
| 20260509125558 | 2 | 0 | 0.0 | 0.0 | 0.00 | 0.00 | 0.00 | 68 | 1025.1 |
| 20260509125057 | 2 | 0 | 0.0 | 0.0 | 0.00 | 0.00 | 0.00 | 68 | 1025.0 |
| 20260509124607 | 2 | 0 | 0.0 | 0.0 | 0.00 | 0.00 | 0.00 | 68 | 1025.0 |
| 20260509124057 | 2 | 0 | 0.0 | 0.0 | 0.00 | 0.00 | 0.00 | 69 | 1025.0 |